EW2754 Weather Reports


Display with metric or nautical units.
time (UTC)temp
F
wind
direction
speed
MPH
gust
MPH
rain 1hr
in
rain 24hr
in
rain mn
in
humidity
%
barometer
mb
20181113201023 44 124 0.0 0.0 0.00 0.00 0.00 90 1015.1
20181113200028 44 124 0.0 0.0 0.00 0.00 0.00 90 1015.1
20181113195035 43 124 0.0 0.0 0.00 0.00 0.00 90 1015.1
20181113194023 43 124 0.0 0.0 0.00 0.00 0.00 89 1015.2
20181113193026 44 123 0.0 0.0 0.00 0.00 0.00 89 1015.1
20181113192031 45 116 0.0 0.0 0.00 0.00 0.00 89 1015.0
20181113191035 45 116 0.0 0.0 0.00 0.00 0.00 89 1015.0
20181113190022 45 116 0.0 0.0 0.00 0.00 0.00 89 1014.9
20181113185026 45 116 0.0 0.0 0.00 0.00 0.00 88 1015.1
20181113184031 45 116 0.0 0.0 0.00 0.00 0.00 89 1015.2
20181113183015 45 116 0.0 0.0 0.00 0.00 0.00 89 1015.3
20181113182023 45 116 0.0 0.0 0.00 0.00 0.00 88 1015.4
20181113181027 45 116 0.0 0.0 0.00 0.00 0.00 88 1015.4
20181113180035 45 116 0.0 0.0 0.00 0.00 0.00 88 1015.3
20181113175019 45 116 0.0 0.0 0.00 0.00 0.00 87 1015.4
20181113174028 45 116 0.0 0.0 0.00 0.00 0.00 87 1015.4
20181113173033 45 116 0.0 0.0 0.00 0.00 0.00 87 1015.4
20181113172017 46 116 0.0 0.0 0.00 0.00 0.00 87 1015.5
20181113171021 47 115 0.0 0.0 0.00 0.00 0.00 87 1015.5
20181113170012 47 115 0.0 0.0 0.00 0.00 0.00 86 1015.5
20181113165019 47 115 0.0 0.0 0.00 0.00 0.00 86 1015.5
20181113164022 47 115 0.0 0.0 0.00 0.00 0.00 86 1015.5
20181113163029 47 115 0.0 0.0 0.00 0.00 0.00 86 1015.5
20181113162018 47 115 0.0 0.0 0.00 0.00 0.00 86 1015.6
20181113161022 47 115 0.0 0.0 0.00 0.00 0.00 86 1015.6
20181113160027 47 115 0.0 0.0 0.00 0.00 0.00 86 1015.6
20181113155015 48 115 0.0 0.0 0.00 0.00 0.00 86 1015.6
20181113154019 48 115 0.0 0.0 0.00 0.00 0.00 86 1015.6
20181113153027 48 115 0.0 0.0 0.00 0.00 0.00 86 1015.6
20181113152015 48 115 0.0 0.0 0.00 0.00 0.00 86 1015.5
20181113151026 48 115 0.0 0.0 0.00 0.00 0.00 86 1015.5
20181113150033 48 115 0.0 0.0 0.00 0.00 0.00 86 1015.4
20181113145017 48 115 0.0 0.0 0.00 0.00 0.00 85 1015.4
20181113144021 48 115 0.0 0.0 0.00 0.00 0.00 85 1015.4
20181113143030 48 115 0.0 0.0 0.00 0.00 0.00 85 1015.4
20181113142016 48 115 0.0 0.0 0.00 0.00 0.00 85 1015.5
20181113141020 48 115 0.0 0.0 0.00 0.00 0.00 84 1015.4
20181113140027 49 116 0.0 0.0 0.00 0.00 0.00 84 1015.4
20181113135015 49 117 0.0 0.0 0.00 0.00 0.00 83 1015.4
20181113134020 49 118 0.0 0.0 0.00 0.00 0.00 82 1015.4
20181113133025 50 118 0.0 0.0 0.00 0.00 0.00 82 1015.2
20181113132030 50 118 0.0 0.0 0.00 0.00 0.00 81 1015.2
20181113131021 50 118 0.0 0.0 0.00 0.00 0.00 81 1015.1
20181113130025 50 119 0.0 0.0 0.00 0.00 0.00 81 1015.0
20181113125033 51 118 0.0 0.0 0.00 0.00 0.00 80 1015.0
20181113124018 51 118 0.0 0.0 0.00 0.00 0.00 80 1014.9
20181113123026 52 118 0.0 0.0 0.00 0.00 0.00 80 1014.9
20181113122030 52 119 0.0 0.0 0.00 0.00 0.00 79 1014.8
20181113121034 52 119 0.0 0.0 0.00 0.00 0.00 79 1014.7
20181113120017 52 118 0.0 0.0 0.00 0.00 0.00 79 1014.6
20181113115025 52 119 0.0 0.0 0.00 0.00 0.00 79 1014.7
20181113114030 52 119 0.0 0.0 0.00 0.00 0.00 79 1014.5
20181113113035 53 119 0.0 0.0 0.00 0.00 0.00 78 1014.5
20181113112019 53 118 0.0 0.0 0.00 0.00 0.00 78 1014.5
20181113111030 53 119 0.0 0.0 0.00 0.00 0.00 78 1014.5
20181113110016 53 119 0.0 0.0 0.00 0.00 0.00 78 1014.4
20181113105021 52 118 0.0 0.0 0.00 0.00 0.00 78 1014.3
20181113104025 52 118 0.0 0.0 0.00 0.00 0.00 78 1014.3
20181113103035 52 118 0.0 0.0 0.00 0.00 0.00 77 1014.2
20181113102020 52 118 0.0 0.0 0.00 0.00 0.00 77 1014.1
20181113101024 53 119 0.0 0.0 0.00 0.00 0.00 77 1014.0
20181113100028 52 121 0.0 0.0 0.00 0.00 0.00 77 1013.9
20181113095017 53 121 0.0 0.0 0.00 0.00 0.00 77 1013.9
20181113094022 53 121 0.0 0.0 0.00 0.00 0.00 76 1013.7
20181113093026 53 121 0.0 0.0 0.00 0.00 0.00 76 1013.5
20181113092031 53 121 0.0 0.0 0.00 0.00 0.00 76 1013.5
20181113091021 53 121 0.0 0.0 0.00 0.00 0.00 76 1013.4
20181113090026 53 121 0.0 0.0 0.00 0.00 0.00 76 1013.3
20181113085030 53 121 0.0 0.0 0.00 0.00 0.00 75 1013.3
20181113084016 53 121 0.0 0.0 0.00 0.00 0.00 75 1013.2
20181113083025 53 121 0.0 0.0 0.00 0.00 0.00 75 1013.2
20181113082030 53 121 0.0 0.0 0.00 0.00 0.00 74 1013.2
20181113081013 54 121 0.0 0.0 0.00 0.00 0.00 74 1013.2
20181113080021 54 121 0.0 0.0 0.00 0.00 0.00 74 1013.2
20181113075032 54 121 0.0 0.0 0.00 0.00 0.00 74 1013.1
20181113074016 54 121 0.0 0.0 0.00 0.00 0.00 73 1013.0
20181113073019 54 126 0.0 0.0 0.00 0.00 0.00 73 1013.0
20181113072024 54 116 0.0 0.0 0.00 0.00 0.00 72 1012.9
20181113071033 54 121 0.0 0.0 0.00 0.00 0.00 71 1012.9
20181113070017 54 130 0.0 0.0 0.00 0.00 0.00 70 1012.9
20181113065021 54 122 0.0 0.0 0.00 0.00 0.00 69 1012.9
20181113064026 54 99 0.0 0.0 0.00 0.00 0.00 69 1012.8
20181113063034 53 105 0.0 0.0 0.00 0.00 0.00 69 1012.8
20181113062018 53 154 0.0 0.0 0.00 0.00 0.00 70 1012.8
20181113061023 53 85 0.0 0.0 0.00 0.00 0.00 70 1012.8
20181113060026 53 98 0.0 0.0 0.00 0.00 0.00 70 1012.9
20181113055033 53 83 0.0 0.0 0.00 0.00 0.00 70 1013.0
20181113054016 53 97 0.0 0.0 0.00 0.00 0.00 71 1013.1
20181113053021 52 124 0.0 0.0 0.00 0.00 0.00 72 1013.2
20181113052024 52 123 0.0 0.0 0.00 0.00 0.00 71 1013.3
20181113051012 52 85 0.0 0.0 0.00 0.00 0.00 72 1013.5
20181113050020 52 90 0.0 0.0 0.00 0.00 0.00 73 1013.5
20181113045024 51 116 0.0 0.0 0.00 0.00 0.00 73 1013.7
20181113044028 51 100 0.0 0.0 0.00 0.00 0.00 74 1013.8
20181113043016 51 101 0.0 0.0 0.00 0.00 0.00 74 1014.0
20181113042020 51 80 0.0 0.0 0.00 0.00 0.00 74 1014.2
20181113041024 51 111 0.0 0.0 0.00 0.00 0.00 74 1014.3
20181113040027 50 123 0.0 0.0 0.00 0.00 0.00 75 1014.5
20181113035015 50 121 0.0 0.0 0.00 0.00 0.00 76 1014.6
20181113034019 49 119 0.0 0.0 0.00 0.00 0.00 76 1014.8
20181113033024 49 67 0.0 0.0 0.00 0.00 0.00 77 1015.0
20181113032011 49 76 0.0 0.0 0.00 0.00 0.00 77 1015.1
20181113031018 48 72 0.0 0.0 0.00 0.00 0.00 77 1015.3
20181113030022 48 63 0.0 0.0 0.00 0.00 0.00 77 1015.4
20181113025026 48 113 0.0 0.0 0.00 0.00 0.00 78 1015.5
20181113024014 47 42 0.0 0.0 0.00 0.00 0.00 78 1015.5
20181113023018 47 40 0.0 0.0 0.00 0.00 0.00 79 1015.7
20181113022022 46 34 0.0 0.0 0.00 0.00 0.00 80 1015.7
20181113021026 46 45 0.0 0.0 0.00 0.00 0.00 80 1015.7
20181113020014 45 40 0.0 0.0 0.00 0.00 0.00 83 1015.7
20181113015022 44 40 0.0 0.0 0.00 0.00 0.00 84 1015.7
20181113014030 44 39 0.0 0.0 0.00 0.00 0.00 84 1015.7
20181113013014 43 39 0.0 0.0 0.00 0.00 0.00 84 1015.7
20181113012022 43 39 0.0 0.0 0.00 0.00 0.00 85 1015.8
20181113011026 42 39 0.0 0.0 0.00 0.00 0.00 85 1015.8
20181113010030 42 39 0.0 0.0 0.00 0.00 0.00 85 1015.9
20181113005014 41 38 0.0 0.0 0.00 0.00 0.00 85 1016.0
20181113004025 41 19 0.0 0.0 0.00 0.00 0.00 85 1015.9
20181113003029 41 38 0.0 0.0 0.00 0.00 0.00 85 1015.9
20181113002014 40 19 0.0 0.0 0.00 0.00 0.00 85 1015.8
20181113001019 40 49 0.0 0.0 0.00 0.00 0.00 85 1015.8
20181113000026 40 29 0.0 0.0 0.00 0.00 0.00 85 1015.6
20181112235030 40 35 0.0 0.0 0.00 0.00 0.00 85 1015.5
20181112234014 40 5 0.0 0.0 0.00 0.00 0.00 85 1015.4
20181112233019 40 39 0.0 0.0 0.00 0.00 0.00 85 1015.2
20181112232027 39 44 0.0 0.0 0.00 0.00 0.00 85 1015.1
20181112231031 39 44 0.0 0.0 0.00 0.00 0.00 84 1015.1
20181112230015 40 44 0.0 0.0 0.00 0.00 0.00 85 1015.0
20181112225019 40 44 0.0 0.0 0.00 0.00 0.00 84 1014.9
20181112224030 40 44 0.0 0.0 0.00 0.00 0.00 84 1014.8
20181112223033 40 44 0.0 0.0 0.00 0.00 0.00 84 1014.7
20181112222018 41 44 0.0 0.0 0.00 0.00 0.00 84 1014.7
20181112221022 41 44 0.0 0.0 0.00 0.00 0.00 84 1014.7
20181112220031 41 44 0.0 0.0 0.00 0.00 0.00 84 1014.6
20181112215015 41 44 0.0 0.0 0.00 0.00 0.00 84 1014.6
20181112214020 41 44 0.0 0.0 0.00 0.00 0.00 85 1014.5
20181112213024 41 49 0.0 0.0 0.00 0.00 0.00 84 1014.5
20181112212032 41 53 0.0 0.0 0.00 0.00 0.00 84 1014.5
20181112211015 40 50 0.0 0.0 0.00 0.00 0.00 84 1014.5
20181112210020 40 51 0.0 0.0 0.00 0.00 0.00 84 1014.5
20181112205025 41 51 0.0 0.0 0.00 0.00 0.00 84 1014.4
20181112204033 41 51 0.0 0.0 0.00 0.00 0.00 84 1014.4
20181112203016 41 51 0.0 0.0 0.00 0.00 0.00 84 1014.4
20181112202023 41 52 0.0 0.0 0.00 0.00 0.00 84 1014.3